Location: Cedar Brake
(32.2526°N, 97.8459°W)
Time: 20:48:18
(UTC+00:00)

H-2A R/B - Pass Details

Date: 22 April 2026
Orbit: 478 x 548 km, 98.3° (Epoch: 21 May)

Event Time Altitude Azimuth Distance (km) Brightness Sun altitude
Exits shadow 10:01:55 16° 330° (NNW) 1,360 4.3 -22.6°
Drops below altitude 10° 10:02:43 10° 335° (NNW) 1,683 4.9 -22.4°
Sets 10:04:50 0° 341° (NNW) 2,559 5.9 -22.1°
